This is the latest recevied weather packets stored in our database for station/object K7KRJ-10. If no packets are shown the sender has not sent any weather packets the latest 10 day(s).
| Time | Temp. | Humidity | Pressure | Rain* | Wind** | Luminosity | Snow |
|---|---|---|---|---|---|---|---|
| 1777673171 | 30° C | 19% | 1007.7 hPa | 0 mm | - | 792 W/m² | - |
| 1777672265 | 29.44° C | 20% | 1008 hPa | 0 mm | - | 839 W/m² | - |
| 1777671364 | 30° C | 20% | 1008.3 hPa | 0 mm | - | 880 W/m² | - |
| 1777670459 | 28.89° C | 21% | 1008.2 hPa | 0 mm | - | 914 W/m² | - |
| 1777669556 | 30° C | 20% | 1008.7 hPa | 0 mm | - | 948 W/m² | - |
| 1777668653 | 29.44° C | 21% | 1008.7 hPa | 0 mm | - | 979 W/m² | - |
| 1777667754 | 28.89° C | 22% | 1008.9 hPa | 0 mm | - | 999 W/m² | - |
| 1777666851 | 28.89° C | 23% | 1009.1 hPa | 0 mm | - | 1022 W/m² | - |
| 1777665947 | 28.89° C | 22% | 1009.1 hPa | 0 mm | - | 1036 W/m² | - |
| 1777665043 | 28.33° C | 24% | 1009.2 hPa | 0 mm | - | 1045 W/m² | - |
| 1777664139 | 27.78° C | 25% | 1009.6 hPa | 0 mm | - | 1052 W/m² | - |
| 1777663237 | 27.78° C | 25% | 1009.7 hPa | 0 mm | - | 1054 W/m² | - |
| 1777662333 | 27.22° C | 25% | 1009.8 hPa | 0 mm | - | 1050 W/m² | - |
| 1777661433 | 27.78° C | 26% | 1009.9 hPa | 0 mm | - | 1042 W/m² | - |
| 1777660532 | 27.78° C | 26% | 1010.3 hPa | 0 mm | - | 1027 W/m² | - |
| 1777659627 | 27.22° C | 26% | 1010.5 hPa | 0 mm | - | 1007 W/m² | - |
| 1777658725 | 26.67° C | 27% | 1010.7 hPa | 0 mm | - | 983 W/m² | - |
| 1777657820 | 26.67° C | 27% | 1010.8 hPa | 0 mm | - | 953 W/m² | - |
| 1777656918 | 25.56° C | 28% | 1010.7 hPa | 0 mm | - | 917 W/m² | - |
| 1777656017 | 26.11° C | 27% | 1010.8 hPa | 0 mm | - | 879 W/m² | - |
| 1777655113 | 25° C | 29% | 1011 hPa | 0 mm | - | 834 W/m² | - |
| 1777654212 | 25.56° C | 30% | 1010.8 hPa | 0 mm | - | 786 W/m² | - |
| 1777653308 | 25.56° C | 30% | 1011 hPa | 0 mm | - | 737 W/m² | - |
| 1777652404 | 25° C | 30% | 1010.7 hPa | 0 mm | - | 685 W/m² | - |
| 1777651501 | 24.44° C | 32% | 1010.7 hPa | 0 mm | - | 634 W/m² | - |
* Rain latest hour (hover to see other rain measurements)
** Current wind speed in m/s (hover to see current wind gust speed)